N6CTG Weather Reports


Display with metric or nautical units.
time (UTC)temp
F
wind
direction
speed
MPH
gust
MPH
rain 1hr
in
rain 24hr
in
rain mn
in
humidity
%
barometer
mb
20260502220924 79 250 5.0 10.0 0.00 0.00 0.00 54 1010.5
20260502220002 80 247 3.0 10.0 0.00 0.00 0.00 52 1010.7
20260502215402 80 264 2.0 6.0 0.00 0.00 0.00 50 1010.6
20260502214502 80 246 3.0 8.0 0.00 0.00 0.00 50 1010.7
20260502213602 80 247 3.0 7.0 0.00 0.00 0.00 49 1011.0
20260502212702 80 245 4.0 8.0 0.00 0.00 0.00 48 1011.1
20260502211802 80 237 2.0 9.0 0.00 0.00 0.00 44 1011.1
20260502210903 78 240 2.0 7.0 0.00 0.00 0.00 42 1011.0
20260502210002 78 234 3.0 7.0 0.00 0.00 0.00 45 1011.1
20260502205423 78 240 1.0 6.0 0.00 0.00 0.00 48 1011.0
20260502204502 76 234 3.0 7.0 0.00 0.00 0.00 51 1011.1
20260502203602 76 232 4.0 8.0 0.00 0.00 0.00 54 1011.4
20260502202702 76 231 3.0 9.0 0.00 0.00 0.00 57 1011.6
20260502201802 76 238 4.0 9.0 0.00 0.00 0.00 57 1011.6
20260502200902 75 246 4.0 8.0 0.00 0.00 0.00 58 1011.6
20260502200002 75 240 2.0 6.0 0.00 0.00 0.00 58 1011.7
20260502195403 75 255 2.0 6.0 0.00 0.00 0.00 58 1011.9
20260502194502 74 236 5.0 10.0 0.00 0.00 0.00 59 1012.0
20260502193602 74 231 5.0 10.0 0.00 0.00 0.00 60 1012.1
20260502192724 74 239 3.0 8.0 0.00 0.00 0.00 59 1012.1
20260502191802 73 242 3.0 6.0 0.00 0.00 0.00 60 1012.1
20260502190923 72 232 3.0 8.0 0.00 0.00 0.00 63 1012.4
20260502190003 71 253 3.0 6.0 0.00 0.00 0.00 65 1012.5
20260502185423 71 240 3.0 6.0 0.00 0.00 0.00 65 1012.6
20260502184502 70 238 3.0 5.0 0.00 0.00 0.00 68 1012.7
20260502183602 69 236 2.0 5.0 0.00 0.00 0.00 70 1012.7
20260502182702 68 239 1.0 4.0 0.00 0.00 0.00 72 1012.9
20260502181802 67 263 1.0 4.0 0.00 0.00 0.00 75 1013.0
20260502180902 66 290 0.0 2.0 0.00 0.00 0.00 76 1013.1
20260502163602 57 239 1.0 3.0 0.00 0.00 0.00 94 1014.3
20260502162702 56 0 0.0 0.0 0.00 0.00 0.00 94 1014.3
20260502161802 56 0 0.0 0.0 0.00 0.00 0.00 94 1014.3
20260502160902 56 0 0.0 0.0 0.00 0.00 0.00 94 1014.3
20260502151802 54 0 0.0 0.0 0.00 0.00 0.00 94 1014.6
20260502150923 54 269 0.0 1.0 0.00 0.00 0.00 94 1014.6
20260502123602 52 0 0.0 0.0 0.00 0.00 0.00 93 1013.3
20260502122702 52 0 0.0 0.0 0.00 0.00 0.00 93 1013.2
20260502121804 52 0 0.0 0.0 0.00 0.00 0.00 93 1012.9
20260502120902 52 0 0.0 0.0 0.00 0.00 0.00 93 1012.7
20260502115402 52 0 0.0 0.0 0.00 0.00 0.00 93 1012.5
20260502114502 52 0 0.0 0.0 0.00 0.00 0.00 93 1012.3
20260502113602 54 0 0.0 0.0 0.00 0.00 0.00 93 1012.2
20260502112702 54 0 0.0 0.0 0.00 0.00 0.00 93 1012.4
20260502111802 54 0 0.0 0.0 0.00 0.00 0.00 93 1012.4
20260502110902 54 0 0.0 0.0 0.00 0.00 0.00 93 1012.2
20260502110002 54 0 0.0 0.0 0.00 0.00 0.00 93 1012.1
20260502105402 54 0 0.0 0.0 0.00 0.00 0.00 93 1012.1
20260502104502 54 0 0.0 0.0 0.00 0.00 0.00 93 1012.1
20260502103602 54 0 0.0 0.0 0.00 0.00 0.00 93 1012.1
20260502102702 54 0 0.0 0.0 0.00 0.00 0.00 93 1012.0
20260502101823 54 0 0.0 0.0 0.00 0.00 0.00 93 1012.0
20260502100923 54 0 0.0 0.0 0.00 0.00 0.00 93 1011.9
20260502090902 54 0 0.0 0.0 0.00 0.00 0.00 92 1011.9
20260502070902 54 0 0.0 0.0 0.00 0.00 0.00 90 1012.8
20260502070023 54 0 0.0 0.0 0.00 0.00 0.00 90 1012.8
20260502065402 55 0 0.0 0.0 0.00 0.00 0.00 90 1012.8
20260502064502 55 0 0.0 0.0 0.00 0.00 0.00 90 1012.7
20260502063602 55 0 0.0 0.0 0.00 0.00 0.00 90 1012.7
20260502062702 55 0 0.0 0.0 0.00 0.00 0.00 90 1012.8
20260502061804 56 0 0.0 0.0 0.00 0.00 0.00 90 1012.8
20260502060903 56 0 0.0 0.0 0.00 0.00 0.00 90 1012.8
20260502060004 56 0 0.0 0.0 0.00 0.00 0.00 89 1012.8
20260502055423 56 0 0.0 0.0 0.00 0.00 0.00 89 1012.8
20260502054502 56 0 0.0 0.0 0.00 0.00 0.00 89 1012.8
20260502053602 56 0 0.0 0.0 0.00 0.00 0.00 89 1012.8
20260502052702 57 0 0.0 0.0 0.00 0.00 0.00 89 1012.8
20260502051802 57 0 0.0 0.0 0.00 0.00 0.00 89 1012.8
20260502050902 57 0 0.0 0.0 0.00 0.00 0.00 88 1012.7
20260502050002 57 0 0.0 0.0 0.00 0.00 0.00 88 1012.8
20260502045402 58 0 0.0 0.0 0.00 0.00 0.00 88 1012.8
20260502044502 58 0 0.0 0.0 0.00 0.00 0.00 88 1012.7
20260502043603 58 0 0.0 0.0 0.00 0.00 0.00 88 1012.7
20260502042723 58 0 0.0 0.0 0.00 0.00 0.00 87 1012.5
20260502041802 58 0 0.0 0.0 0.00 0.00 0.00 87 1012.4
20260502040902 58 0 0.0 0.0 0.00 0.00 0.00 87 1012.3
20260502040002 58 0 0.0 0.0 0.00 0.00 0.00 87 1012.3
20260502035423 58 0 0.0 0.0 0.00 0.00 0.00 86 1012.3
20260502034502 59 0 0.0 0.0 0.00 0.00 0.00 86 1012.3
20260502033623 59 0 0.0 0.0 0.00 0.00 0.00 85 1012.2
20260502032702 59 0 0.0 0.0 0.00 0.00 0.00 85 1012.1
20260502031823 60 247 0.0 1.0 0.00 0.00 0.00 84 1012.0
20260502030902 60 255 0.0 2.0 0.00 0.00 0.00 83 1011.9
20260502030004 61 239 2.0 5.0 0.00 0.00 0.00 82 1011.9
20260502025423 61 245 2.0 4.0 0.00 0.00 0.00 81 1011.8
20260502024502 62 246 2.0 5.0 0.00 0.00 0.00 79 1011.6
20260502023602 64 240 3.0 6.0 0.00 0.00 0.00 76 1011.5
20260502022702 65 248 2.0 5.0 0.00 0.00 0.00 74 1011.3
20260502021802 66 244 2.0 6.0 0.00 0.00 0.00 72 1011.2
20260502020902 68 248 2.0 6.0 0.00 0.00 0.00 70 1010.9
20260502020002 68 244 3.0 7.0 0.00 0.00 0.00 68 1010.9
20260502015402 69 244 3.0 6.0 0.00 0.00 0.00 66 1010.8
20260502014502 70 241 4.0 8.0 0.00 0.00 0.00 64 1010.7
20260502013624 72 259 1.0 7.0 0.00 0.00 0.00 62 1010.7
20260502012723 72 247 3.0 8.0 0.00 0.00 0.00 62 1010.6
20260502011802 73 237 3.0 8.0 0.00 0.00 0.00 61 1010.5
20260502010923 74 244 3.0 6.0 0.00 0.00 0.00 59 1010.4
20260502010023 74 245 2.0 6.0 0.00 0.00 0.00 58 1010.5
20260502005402 75 245 2.0 6.0 0.00 0.00 0.00 57 1010.4
20260502004502 75 241 3.0 7.0 0.00 0.00 0.00 57 1010.4
20260502003602 75 253 3.0 7.0 0.00 0.00 0.00 57 1010.4
20260502002703 75 257 3.0 6.0 0.00 0.00 0.00 57 1010.4
20260502001803 75 247 3.0 8.0 0.00 0.00 0.00 57 1010.4
20260502000923 75 242 4.0 8.0 0.00 0.00 0.00 56 1010.3
20260502000002 75 246 4.0 10.0 0.00 0.00 0.00 57 1010.3
20260501235402 75 246 5.0 10.0 0.00 0.00 0.00 57 1010.3
20260501234503 76 239 4.0 10.0 0.00 0.00 0.00 55 1010.3
20260501233623 76 244 5.0 10.0 0.00 0.00 0.00 56 1010.3
20260501232702 76 246 5.0 11.0 0.00 0.00 0.00 55 1010.3
20260501231803 76 237 7.0 11.0 0.00 0.00 0.00 54 1010.3
20260501230903 78 245 4.0 10.0 0.00 0.00 0.00 52 1010.4
20260501230002 78 235 4.0 11.0 0.00 0.00 0.00 52 1010.4
20260501225402 78 240 4.0 8.0 0.00 0.00 0.00 51 1010.4
20260501224502 78 235 6.0 9.0 0.00 0.00 0.00 50 1010.5
20260501223602 78 240 4.0 9.0 0.00 0.00 0.00 50 1010.6
20260501222702 79 257 4.0 10.0 0.00 0.00 0.00 49 1010.6
20260501221802 80 248 3.0 8.0 0.00 0.00 0.00 47 1010.7